TimeHST,TemperatureF,Dew PointF,Humidity,Sea Level PressureIn,VisibilityMPH,Wind Direction,Wind SpeedMPH,Gust SpeedMPH,PrecipitationIn,Events,Conditions,WindDirDegrees,DateUTC
12:54 AM,69.1,55.0,61,30.15,10.0,NE,11.5,27.6,N/A,,Overcast,50,2013-02-04 10:54:00
1:54 AM,69.1,57.0,65,30.13,10.0,NE,16.1,21.9,N/A,,Overcast,50,2013-02-04 11:54:00
2:54 AM,68.0,54.0,61,30.12,10.0,NE,12.7,25.3,N/A,,Mostly Cloudy,50,2013-02-04 12:54:00
3:54 AM,69.1,57.9,68,30.12,10.0,ENE,17.3,28.8,N/A,,Overcast,60,2013-02-04 13:54:00
4:54 AM,69.1,55.9,63,30.13,10.0,NE,13.8,20.7,N/A,,Overcast,50,2013-02-04 14:54:00
5:54 AM,69.1,57.0,65,30.13,10.0,NE,12.7,19.6,N/A,,Overcast,50,2013-02-04 15:54:00
5:56 AM,69.8,57.2,64,30.12,10.0,NE,10.4,18.4,N/A,,Mostly Cloudy,40,2013-02-04 15:56:00
6:54 AM,69.1,59.0,70,30.14,10.0,NE,13.8,24.2,N/A,,Mostly Cloudy,40,2013-02-04 16:54:00
7:54 AM,70.0,61.0,73,30.16,10.0,NE,12.7,24.2,N/A,,Mostly Cloudy,40,2013-02-04 17:54:00
8:54 AM,71.1,61.0,70,30.16,10.0,NE,13.8,28.8,N/A,,Mostly Cloudy,40,2013-02-04 18:54:00
9:54 AM,72.0,61.0,68,30.16,10.0,NE,15.0,27.6,N/A,,Mostly Cloudy,50,2013-02-04 19:54:00
10:54 AM,72.0,62.1,71,30.16,10.0,NNE,13.8,25.3,N/A,,Mostly Cloudy,30,2013-02-04 20:54:00
11:54 AM,73.0,62.1,68,30.15,10.0,NE,12.7,25.3,N/A,,Mostly Cloudy,40,2013-02-04 21:54:00
12:54 PM,73.9,60.1,62,30.12,10.0,NE,18.4,29.9,N/A,,Mostly Cloudy,50,2013-02-04 22:54:00
1:54 PM,75.0,60.1,60,30.10,10.0,NE,16.1,26.5,N/A,,Scattered Clouds,50,2013-02-04 23:54:00
2:54 PM,73.0,61.0,66,30.09,9.0,NNE,13.8,23.0,0.00,,Scattered Clouds,30,2013-02-05 00:54:00
3:54 PM,72.0,57.9,61,30.08,10.0,NE,15.0,24.2,0.00,,Mostly Cloudy,40,2013-02-05 01:54:00
4:43 PM,71.6,60.8,69,30.08,8.0,ENE,15.0,27.6,0.00,Rain,Light Rain,60,2013-02-05 02:43:00
4:50 PM,69.8,62.6,78,30.08,7.0,NE,20.7,33.4,0.00,Rain,Light Rain,50,2013-02-05 02:50:00
4:54 PM,69.1,62.1,78,30.09,10.0,NE,23.0,33.4,0.00,Rain,Light Rain,50,2013-02-05 02:54:00
5:46 PM,69.8,57.2,64,30.09,10.0,NE,11.5,25.3,0.00,,Mostly Cloudy,50,2013-02-05 03:46:00
5:54 PM,69.1,57.9,68,30.10,10.0,NE,11.5,18.4,0.00,,Mostly Cloudy,50,2013-02-05 03:54:00
6:54 PM,69.1,60.1,73,30.09,10.0,NE,13.8,26.5,N/A,,Clear,40,2013-02-05 04:54:00
7:14 PM,66.2,60.8,83,30.09,9.0,NE,13.8,27.6,0.00,Rain,Light Rain,40,2013-02-05 05:14:00
7:36 PM,68.0,60.8,78,30.09,10.0,NE,12.7,24.2,0.00,,Scattered Clouds,50,2013-02-05 05:36:00
7:54 PM,68.0,59.0,73,30.10,10.0,NE,16.1,23.0,0.00,,Partly Cloudy,40,2013-02-05 05:54:00
8:54 PM,69.1,60.1,73,30.12,10.0,NE,17.3,26.5,N/A,,Partly Cloudy,50,2013-02-05 06:54:00
9:54 PM,69.1,59.0,70,30.12,10.0,NE,16.1,31.1,N/A,,Clear,40,2013-02-05 07:54:00
10:54 PM,69.1,60.1,73,30.11,10.0,NNE,12.7,25.3,N/A,,Clear,30,2013-02-05 08:54:00
11:54 PM,69.1,59.0,70,30.11,10.0,NNE,15.0,31.1,N/A,,Clear,30,2013-02-05 09:54:00